Location: Newark
(45.8511°N, 10.8245°E)
Time: 19:01:01
(UTC+00:00)

OTV 5 (USA 277) - Pass Details

Date: 22 August 2019
Orbit: 310 x 324 km, 54.5° (Epoch: 08 October)

Event Time Altitude Azimuth Distance (km) Brightness Sun altitude
Exits shadow 02:41:08 41° 310° (NW) 467 ? -16.7°
Maximum altitude 02:41:55 84° 34° (NE) 318 ? -16.6°
Drops below altitude 10° 02:44:35 10° 124° (ESE) 1,204 ? -16.2°
Sets 02:46:32 0° 125° (SE) 2,031 ? -15.9°
